Whiteman AFB, MO

6:56 AM CST on December 08, 2016 (GMT -0600)
Whiteman Air Force Base

Weather History for KSZL - December, 2012

Change the Weather History Date:

Sunday, December 23, 2012

  Actual Average Record
Temperature  
Mean Temperature 32 °F -  
Max Temperature 39 °F 37 °F 65 °F (2015)
Min Temperature 25 °F 20 °F 3 °F (2004)
Degree Days  
Heating Degree Days 33    
Moisture  
Dew Point 27 °F    
Average Humidity 86    
Maximum Humidity 99    
Minimum Humidity 50    
Precipitation  
Precipitation 0.00 in - - ()
Sea Level Pressure  
Sea Level Pressure 29.94 in    
Wind  
Wind Speed 5 mph (North)    
Max Wind Speed 10 mph    
Max Gust Speed -    
Visibility 10 miles    
Events      
Averages and records for this station are not official NWS values.
T = Trace of Precipitation, MM = Missing Value Source: NWS Daily Summary

Daily Weather History Graph

Daily Weather History Graph

Search for Another Location

Airport or City:

Trip Planner

Search our weather history database for the weather conditions in past years. The results will help you decide how hot, cold, wet, or windy it might be!

Date:

Astronomy

Dec. 23, 2012 Rise Set
Actual Time 7:29 AM CST 4:57 PM CST
Civil Twilight 6:59 AM CST 5:27 PM CST
Nautical Twilight 6:26 AM CST 6:00 PM CST
Astronomical Twilight 5:54 AM CST 6:33 PM CST
Moon 1:47 PM CST (12/23) 3:14 AM CST (12/23)
Length of Visible Light 10h 27m
Length of Day
9h 27m
Waxing Gibbous, 82% of the Moon is Illuminated
Dec 23
Waxing Gibbous
Dec 28
Full
Jan 4
Last Quarter
Jan 11
New
Jan 18
First Quarter

Hourly Weather History & Observations

Time (CST) Temp. Windchill Dew Point Humidity Pressure Visibility Wind Dir Wind Speed Gust Speed Precip Events Conditions
12:55 AM 38.7 °F 35.2 °F 21.4 °F 50% 29.94 in 10.0 mi West 4.6 mph - N/A   Clear
1:55 AM 38.3 °F - 21.7 °F 51% 29.94 in 10.0 mi Calm Calm - N/A   Clear
2:55 AM 33.1 °F - 23.4 °F 67% 29.94 in 10.0 mi Calm Calm - N/A   Clear
3:55 AM 30.0 °F 26.5 °F 24.3 °F 79% 29.94 in 10.0 mi NNW 3.5 mph - N/A   Clear
4:55 AM 29.1 °F - 26.1 °F 88% 29.94 in 10.0 mi Calm Calm - N/A   Clear
5:55 AM 26.1 °F 20.5 °F 25.7 °F 99% 29.95 in 10.0 mi North 4.6 mph - N/A   Clear
6:55 AM 25.7 °F 19.0 °F 25.5 °F 99% 29.96 in 10.0 mi North 5.8 mph - N/A   Clear
7:55 AM 25.2 °F 19.5 °F 24.8 °F 99% 29.97 in 10.0 mi North 4.6 mph - N/A   Clear
8:55 AM 28.0 °F 20.0 °F 27.9 °F 99% 29.99 in 10.0 mi North 8.1 mph - N/A   Clear
9:55 AM 30.0 °F 21.7 °F 28.4 °F 94% 30.00 in 10.0 mi North 9.2 mph - N/A   Clear
10:55 AM 32.0 °F 23.6 °F 28.8 °F 88% 29.99 in 10.0 mi NNE 10.4 mph - N/A   Clear
11:55 AM 33.8 °F 27.7 °F 29.1 °F 83% 29.95 in 10.0 mi NNE 6.9 mph - N/A   Clear
12:55 PM 37.2 °F 33.6 °F 29.8 °F 75% 29.90 in 10.0 mi NE 4.6 mph - N/A   Clear
1:55 PM 39.0 °F 34.8 °F 31.1 °F 73% 29.90 in 10.0 mi NNW 5.8 mph - N/A   Clear
2:55 PM 39.6 °F 34.0 °F 31.6 °F 73% 29.91 in 10.0 mi North 8.1 mph - N/A   Clear
3:55 PM 38.3 °F 32.5 °F 31.8 °F 77% 29.92 in 10.0 mi North 8.1 mph - N/A   Clear
4:55 PM 32.5 °F 25.5 °F 31.8 °F 97% 29.91 in 10.0 mi North 8.1 mph - N/A   Clear
5:55 PM 32.4 °F 24.6 °F 31.6 °F 97% 29.93 in 10.0 mi NNW 9.2 mph - N/A   Clear
6:55 PM 30.6 °F 23.1 °F 30.4 °F 99% 29.94 in 10.0 mi North 8.1 mph - N/A   Clear
7:55 PM 29.1 °F 22.1 °F 28.9 °F 99% 29.95 in 10.0 mi North 6.9 mph - N/A   Clear
8:55 PM 28.2 °F 20.2 °F 27.9 °F 99% 29.96 in 10.0 mi NNW 8.1 mph - N/A   Clear
9:55 PM 27.1 °F 18.9 °F 25.9 °F 95% 29.95 in 10.0 mi NNW 8.1 mph - N/A   Clear
10:55 PM 26.6 °F 18.2 °F 25.9 °F 97% 29.94 in 10.0 mi NNW 8.1 mph - N/A   Clear
11:55 PM 26.4 °F 18.9 °F 25.9 °F 98% 29.95 in 10.0 mi NNW 6.9 mph - N/A   Clear